CZ-2D R/B, 65853

Orbit data source: Space-Track

CZ-2D R/B, 65853 is space debris in LEO originally from a launch on Mon, 29 Sep 2025 UTC launched from the Xichang Space Center, China (XSC). Debris objects in space refer to the collection of defunct objects orbiting the Earth. Examples of debris include non-operational satellites, rocket bodies, and fragments generated from explosions, collisions, or faulty payload assembly.

Loading next visibility...
Identifier
65853, 2025-222C
Orbit
LEO
Country
Flag of CNCN / PRC
Related business
Manufacturer
BWYIC
Mission
Spacecraft
Bus & Motor
CZ-2 STAGE 2, Unknown motor
Mass
4,006 kg wet, 4,006 kg dry
Launch date (UTC)
2025-09-29 (9 months ago)
Launch vehicle
Unknown
Launch site
Xichang Space Center, China (XSC)
Object type
Payload
Rocket body
Debris
Shape & HBR
Cyl, 8.0 m
Radar Cross Section
27.824 m², Large (>1 m²)

Expand to show TLE details & history
Last TLE update: 10 hours ago

TLE from 10 hours ago
0 CZ-2D R/B
1 65853U 25222C   26171.41662039  .00001146  00000-0  88421-4 0  9997
2 65853  34.9003 222.6041 0053929 123.5693 237.0178 15.00598416 39719
Epoch: 2026-06-20T09:59Z
TLE epoch observation values (Epoch: 2026-06-20T09:59:56.001Z)
Latitude
0.00002°
Longitude
163.98924°
Altitude
584.478 km
Speed
7.559 km/s
True Right ascension
14h 50m 24s
True Declination
0° 00' 00"
Sunlit
Object was in full shadow at epoch
Visualization orbit readout
Latitude
Unknown
Longitude
Unknown
Altitude
Unknown
Speed
Unknown
Apparent Right ascension
Unknown
Apparent Declination
Unknown
Sunlit
N/A
Visualization observer readout
Local Sidereal Time
07:12:40
Azimuth
Unknown
Elevation
Unknown
Doppler factor
Unknown
Orbital elements
Apogee altitude
605.745 km
Perigee altitude
530.822 km
Semi-major axis
6,946.421 km
Eccentricity
0.00539
Inclination
34.9003°
RAAN
222.6041°
Arg. of periapsis
123.5693°
True anomaly
236.50132°
Mean anomaly
237.0178°
Eccentric anomaly
236.75937°
Mean motion
3.74888 °/min
Orbital period
96.03 mins
BSTAR
0.000088421
Loading maneuver chart data...
Computing Atmospheric mass density...
Loading historical data...
Loading historical data...
Loading historical data...
Loading historical data...
Loading historical data...
Loading historical data...
Loading historical data...
Other satellites on launch #222 in the year 2025 (2025-09-29 UTC)

Documentation

Showing up to 5 results
|